Location: Bruderhein
(53.8035°N, 112.9265°W)
Time: 01:30:46
(UTC+00:00)

BEESAT - Pass Details

Date: 09 April 2023
Orbit: 696 x 706 km, 98.5° (Epoch: 31 May)

Event Time Altitude Azimuth Distance (km) Brightness Sun altitude
Rises 05:58:55 0° 10° (N) 3,113 ? -25.5°
Reaches altitude 10° 06:01:21 10° 1° (N) 2,188 ? -25.7°
Maximum altitude 06:05:36 33° 299° (WNW) 1,186 ? -26.0°
Enters shadow 06:08:30 17° 246° (WSW) 1,722 ? -26.1°
